Station QPTR1 - 8454049 - Quonset Point, RI Image indicating link to RSS feed of recent meteorological observations for station QPTR1


Conditions at QPTR1 as of
(4:30 pm EDT)
2030 GMT on 04/17/2024:
     

Click on the graph icon in the table below to see a time series plot of the last five days of that observation.

5-day plot - Wind Direction Wind Direction (WDIR): S ( 190 deg true )
5-day plot - Wind Speed Wind Speed (WSPD): 13.0 kts
5-day plot - Wind Gust Wind Gust (GST): 15.9 kts
5-day plot - Atmospheric Pressure Atmospheric Pressure (PRES):30.14 in
5-day plot - Air Temperature Air Temperature (ATMP): 47.3 °F
5-day plot - Wind Chill Wind Chill (CHILL): 41.2 °F
5-day plot - Wind Speed at 10 Meters Wind Speed at 10 meters (WSPD10M): 13.6 kts
5-day plot - Wind Speed at 20 Meters Wind Speed at 20 meters (WSPD20M): 15.5 kts
5-day plot -  Wind Speed, Wind Gust and Atmospheric Pressure Combined plot of Wind Speed, Gust, and Air Pressure
NOS Water Level Observation Network Water Level
Previous observations
TIME
(EDT)
5-day plot - Wind Direction
WDIR
 
5-day plot - Wind Speed
WSPD
kts
5-day plot - Wind Gust
GST
kts
5-day plot - Wave Height
WVHT
ft
5-day plot - Dominant Wave Period
DPD
sec
5-day plot - Average Wave Period
APD
sec
5-day plot - Mean Wave Direction
MWD
 
5-day plot - Atmospheric Pressure
PRES
in
5-day plot - Pressure Tendency
PTDY
in
5-day plot - Air Temperature
ATMP
°F
5-day plot - Water Temperature
WTMP
°F
5-day plot - Dew Point
DEWP
°F
5-day plot - Salinity
SAL
psu
5-day plot - Visibility
VIS
nmi
5-day plot - Tide (above MLLW)
TIDE
ft
2024-04-17 04:24 pmSSW 13.0 15.0----30.14- 47.5-----
2024-04-17 04:18 pm S 13.0 15.0----30.14- 47.7-----
2024-04-17 04:12 pmSSW 13.0 15.0----30.14- 47.3-----
2024-04-17 04:06 pmSSW 13.0 15.0----30.14- 47.5-----
2024-04-17 04:00 pmSSW 13.0 15.0----30.14-0.05 47.5-----
2024-04-17 03:54 pmSSW 13.0 15.0----30.15- 47.7-----
2024-04-17 03:48 pm S 14.0 15.0----30.15- 47.5-----
2024-04-17 03:42 pmSSW 13.0 15.9----30.15- 47.5-----
2024-04-17 03:36 pm S 12.0 14.0----30.16- 47.7-----
2024-04-17 03:30 pmSSW 13.0 14.0----30.16- 47.3-----
2024-04-17 03:24 pmSSW 13.0 14.0----30.16- 47.5-----
2024-04-17 03:18 pmSSW 13.0 14.0----30.16- 47.8-----
2024-04-17 03:12 pm S 13.0 15.0----30.16- 47.7-----
2024-04-17 03:06 pm S 14.0 15.0----30.16- 47.8-----
2024-04-17 03:00 pmSSW 14.0 15.9----30.16-0.04 48.0-----
2024-04-17 02:54 pm S 14.0 15.9----30.16- 48.0-----
2024-04-17 02:48 pmSSW 14.0 15.0----30.17- 48.0-----
2024-04-17 02:42 pmSSW 13.0 14.0----30.17- 48.2-----
2024-04-17 02:36 pmSSW 13.0 14.0----30.17- 48.2-----
2024-04-17 02:30 pmSSW 14.0 15.0----30.17- 48.4-----
2024-04-17 02:24 pmSSW 13.0 15.0----30.18- 48.4-----
2024-04-17 02:18 pmSSW 13.0 15.0----30.18- 48.6-----
2024-04-17 02:12 pmSSW 14.0 15.9----30.18- 48.9-----
2024-04-17 02:06 pmSSW 13.0 15.0----30.18- 49.1-----
2024-04-17 02:00 pm S 14.0 15.0----30.18-0.04 49.3-----
2024-04-17 01:54 pmSSW 14.0 15.0----30.18- 49.3-----
2024-04-17 01:48 pm S 13.0 15.0----30.18- 49.3-----
2024-04-17 01:42 pmSSW 13.0 15.0----30.19- 49.1-----
2024-04-17 01:36 pm S 13.0 14.0----30.19- 49.1-----
2024-04-17 01:30 pmSSW 13.0 15.0----30.19- 48.9-----
2024-04-17 01:24 pmSSW 13.0 15.9----30.19- 49.1-----
2024-04-17 01:18 pmSSW 12.0 14.0----30.19- 49.1-----
2024-04-17 01:12 pmSSW 13.0 14.0----30.19- 48.7-----
2024-04-17 01:06 pm S 13.0 15.0----30.19- 48.9-----
2024-04-17 01:00 pm S 13.0 15.0----30.19-0.04 48.9-----
2024-04-17 12:54 pm S 13.0 14.0----30.19- 48.7-----
2024-04-17 12:48 pmSSW 13.0 15.0----30.20- 48.9-----
2024-04-17 12:42 pmSSW 14.0 15.0----30.20- 48.9-----
2024-04-17 12:36 pmSSW 13.0 14.0----30.20- 49.5-----
2024-04-17 12:30 pmSSW 12.0 13.0----30.20- 49.3-----
2024-04-17 12:24 pmSSW 11.1 13.0----30.20- 49.8-----
2024-04-17 12:18 pmSSW 9.9 12.0----30.20- 49.8-----
2024-04-17 12:12 pmSSW 11.1 13.0----30.20- 49.8-----
2024-04-17 12:06 pmSSW 12.0 13.0----30.20- 49.6-----
2024-04-17 12:00 pm S 11.1 12.0----30.20-0.04 50.2-----
2024-04-17 11:54 am S 11.1 13.0----30.20- 50.2-----
2024-04-17 11:48 amSSW 9.9 11.1----30.21- 51.1-----
2024-04-17 11:42 am S 8.9 11.1----30.21- 51.3-----
2024-04-17 11:36 amSSW 9.9 11.1----30.21- 51.3-----
2024-04-17 11:30 amSSW 6.0 7.0----30.21- 51.3-----
2024-04-17 11:24 amSSW 5.1 5.1----30.21- 51.1-----
2024-04-17 11:18 am SW 2.9 2.9----30.21- 51.3-----
2024-04-17 11:12 amSSW 1.9 2.9----30.21- 52.7-----
2024-04-17 11:06 am- 0.0 1.0----30.21- 54.7-----
2024-04-17 11:00 am- 0.0 1.0----30.22-0.02 54.5-----
2024-04-17 10:54 amNNE 1.0 4.1----30.22- 51.1-----
2024-04-17 10:48 am NE 2.9 5.1----30.22- 50.2-----
2024-04-17 10:42 am NE 2.9 5.1----30.22- 49.8-----
2024-04-17 10:36 amNNE 4.1 5.1----30.22- 49.5-----
2024-04-17 10:30 am NE 4.1 5.1----30.22- 49.5-----
2024-04-17 10:24 am NE 4.1 6.0----30.23- 49.3-----
2024-04-17 10:18 am NE 4.1 5.1----30.23- 49.1-----
2024-04-17 10:12 amNNE 4.1 5.1----30.23- 49.1-----
2024-04-17 10:06 am NE 4.1 5.1----30.23- 49.1-----
2024-04-17 10:00 am NE 2.9 2.9----30.23+0.00 49.3-----
2024-04-17 09:54 amNNE 2.9 5.1----30.24- 48.7-----
2024-04-17 09:48 am NE 4.1 5.1----30.24- 48.4-----
2024-04-17 09:42 amNNE 4.1 6.0----30.24- 48.4-----
2024-04-17 09:36 amNNE 2.9 5.1----30.24- 48.4-----
2024-04-17 09:30 amNNE 4.1 5.1----30.24- 48.2-----
2024-04-17 09:24 am NE 4.1 5.1----30.24- 48.0-----
2024-04-17 09:18 am NE 5.1 5.1----30.24- 47.8-----
2024-04-17 09:12 am NE 5.1 7.0----30.24- 47.7-----
2024-04-17 09:06 am NE 6.0 8.0----30.24- 47.7-----
2024-04-17 09:00 am NE 6.0 8.0----30.24+0.01 47.5-----
2024-04-17 08:54 am NE 5.1 7.0----30.25- 47.7-----
2024-04-17 08:48 amNNE 6.0 8.9----30.25- 47.7-----
2024-04-17 08:42 am NE 7.0 8.9----30.25- 47.7-----
2024-04-17 08:36 am NE 7.0 9.9----30.24- 47.7-----
2024-04-17 08:30 am--------- 47.8-----
2024-04-17 08:24 am--------- 47.7-----
2024-04-17 08:18 am NE 9.9 11.1----30.24- 47.7-----
2024-04-17 08:12 am NE 8.0 11.1----30.24- 47.7-----
2024-04-17 08:06 am NE 8.0 12.0----30.24- 47.7-----
2024-04-17 08:00 am NE 9.9 12.0----30.24+0.03 47.5-----
2024-04-17 07:54 am NE 11.1 12.0----30.24- 47.5-----
2024-04-17 07:48 am NE 9.9 13.0----30.24- 47.1-----
2024-04-17 07:42 am NE 9.9 12.0----30.24- 47.1-----
2024-04-17 07:36 am NE 9.9 12.0----30.24- 47.1-----
2024-04-17 07:30 am NE 9.9 13.0----30.24- 46.9-----
2024-04-17 07:24 am NE 8.9 12.0----30.24- 47.3-----
2024-04-17 07:18 am NE 8.9 12.0----30.24- 47.1-----
2024-04-17 07:12 am NE 9.9 12.0----30.23- 47.3-----
2024-04-17 07:06 am NE 11.1 12.0----30.23- 47.3-----
2024-04-17 07:00 am NE 9.9 12.0----30.23+0.05 47.3-----
2024-04-17 06:54 amNNE 11.1 12.0----30.23- 47.3-----
2024-04-17 06:48 am NE 11.1 13.0----30.23- 47.5-----
2024-04-17 06:42 am NE 11.1 12.0----30.23- 47.5-----
2024-04-17 06:36 am NE 9.9 13.0----30.23- 47.7-----
2024-04-17 06:30 am NE 9.9 12.0----30.23- 47.8-----
2024-04-17 06:24 am NE 9.9 12.0----30.23- 47.8-----
2024-04-17 06:18 am NE 9.9 12.0----30.23- 48.0-----
2024-04-17 06:12 am NE 9.9 12.0----30.23- 48.0-----
2024-04-17 06:06 am NE 11.1 12.0----30.23- 47.8-----
2024-04-17 06:00 am NE 9.9 11.1----30.23+0.06 48.2-----
2024-04-17 05:54 am NE 9.9 12.0----30.23- 48.2-----
2024-04-17 05:48 am NE 9.9 12.0----30.22- 48.4-----
2024-04-17 05:42 am NE 9.9 12.0----30.22- 48.6-----
2024-04-17 05:36 am NE 8.9 12.0----30.22- 48.7-----
2024-04-17 05:30 am NE 8.9 11.1----30.22- 48.9-----
2024-04-17 05:24 am NE 8.0 9.9----30.22- 48.9-----
2024-04-17 05:18 am NE 8.0 15.0----30.22- 49.1-----
2024-04-17 05:12 am NE 8.0 11.1----30.21- 49.1-----
2024-04-17 05:06 am NE 7.0 9.9----30.21- 49.3-----
2024-04-17 05:00 am NE 8.9 9.9----30.21+0.04 49.3-----
2024-04-17 04:54 am NE 8.9 12.0----30.21- 49.5-----
2024-04-17 04:48 am NE 11.1 13.0----30.21- 49.6-----
2024-04-17 04:42 am NE 9.9 12.0----30.20- 49.8-----
2024-04-17 04:36 am NE 9.9 11.1----30.20- 49.8-----
2024-04-17 04:30 am NE 11.1 12.0----30.19- 50.0-----
2024-04-17 04:24 am NE 8.9 12.0----30.19- 50.2-----
2024-04-17 04:18 am NE 11.1 12.0----30.19- 50.2-----
2024-04-17 04:12 am NE 12.0 13.0----30.19- 50.2-----
2024-04-17 04:06 am NE 11.1 13.0----30.18- 50.4-----
2024-04-17 04:00 am NE 11.1 14.0----30.18+0.02 50.5-----
2024-04-17 03:54 am NE 12.0 15.0----30.18- 50.7-----
2024-04-17 03:48 amENE 14.0 15.9----30.18- 50.7-----
2024-04-17 03:42 amENE 15.0 18.1----30.18- 50.9-----
2024-04-17 03:36 am NE 15.9 18.1----30.17- 51.1-----
2024-04-17 03:30 am NE 15.9 19.0----30.17- 51.3-----
2024-04-17 03:24 amENE 15.9 18.1----30.17- 51.4-----
2024-04-17 03:18 amENE 15.9 18.1----30.17- 51.8-----
2024-04-17 03:12 am NE 14.0 18.1----30.17- 52.3-----
2024-04-17 03:06 am NE 14.0 15.9----30.17- 52.9-----
2024-04-17 03:00 am NE 13.0 15.0----30.17+0.01 53.2-----
2024-04-17 02:54 am NE 12.0 15.9----30.17- 53.6-----
2024-04-17 02:48 amNNE 13.0 15.0----30.17- 54.0-----
2024-04-17 02:42 amNNE 12.0 14.0----30.17- 54.1-----
2024-04-17 02:36 amNNE 11.1 13.0----30.16- 54.1-----
2024-04-17 02:30 amNNE 11.1 15.0----30.16- 54.3-----
2024-04-17 02:24 amNNE 11.1 14.0----30.16- 54.3-----
2024-04-17 02:18 amNNE 11.1 13.0----30.17- 54.3-----
2024-04-17 02:12 amNNE 9.9 13.0----30.17- 54.5-----
2024-04-17 02:06 amNNE 9.9 12.0----30.17- 54.7-----
2024-04-17 02:00 amNNE 9.9 14.0----30.17+0.04 54.9-----
2024-04-17 01:54 amNNE 12.0 17.1----30.16- 55.0-----
2024-04-17 01:48 amNNE 14.0 18.1----30.16- 55.4-----
2024-04-17 01:42 am N 13.0 17.1----30.16- 55.6-----
2024-04-17 01:36 am N 11.1 15.0----30.16- 55.2-----
2024-04-17 01:30 am N 8.0 9.9----30.16- 54.0-----
2024-04-17 01:24 am N 6.0 8.0----30.16- 54.0-----
2024-04-17 01:18 amNNW 2.9 5.1----30.16- 53.6-----
2024-04-17 01:12 am N 2.9 5.1----30.16- 53.2-----
2024-04-17 01:06 amNNW 2.9 5.1----30.16- 53.2-----
2024-04-17 01:00 am N 2.9 5.1----30.16+0.04 53.1-----
2024-04-17 12:54 am- 0.0 1.0----30.16- 51.8-----
2024-04-17 12:48 amWSW 1.9 4.1----30.16- 52.2-----
2024-04-17 12:42 amWSW 4.1 5.1----30.15- 52.3-----
2024-04-17 12:36 amWSW 5.1 5.1----30.15- 52.7-----
2024-04-17 12:30 amWSW 4.1 4.1----30.15- 52.7-----
2024-04-17 12:24 am W 4.1 5.1----30.15- 52.9-----
2024-04-17 12:18 am W 6.0 8.0----30.15- 53.1-----
2024-04-17 12:12 am W 7.0 7.0----30.15- 53.2-----
2024-04-17 12:06 am W 6.0 7.0----30.15- 53.2-----
2024-04-17 12:00 am W 7.0 7.0----30.15+0.04 53.2-----
2024-04-16 11:54 pm W 6.0 6.0----30.15- 53.1-----
2024-04-16 11:48 pm W 6.0 7.0----30.15- 53.2-----
2024-04-16 11:42 pmWSW 7.0 8.0----30.15- 53.6-----
2024-04-16 11:36 pmWSW 7.0 8.0----30.14- 53.2-----
2024-04-16 11:30 pm W 5.1 6.0----30.14- 55.4-----
2024-04-16 11:24 pm W 5.1 6.0----30.14- 58.1-----
2024-04-16 11:18 pm W 5.1 7.0----30.14- 58.1-----
2024-04-16 11:12 pm W 5.1 6.0----30.14- 57.9-----
2024-04-16 11:06 pm W 5.1 6.0----30.14- 56.8-----
2024-04-16 11:00 pm W 6.0 7.0----30.13+0.04 54.5-----
2024-04-16 10:54 pm W 5.1 8.0----30.13- 53.2-----
2024-04-16 10:48 pm W 6.0 7.0----30.13- 54.9-----
2024-04-16 10:42 pm W 5.1 7.0----30.12- 59.7-----
2024-04-16 10:36 pmWNW 5.1 6.0----30.12- 59.5-----
2024-04-16 10:30 pmWNW 5.1 6.0----30.13- 59.0-----
2024-04-16 10:24 pm W 5.1 7.0----30.12- 57.4-----
2024-04-16 10:18 pm W 6.0 7.0----30.12- 54.1-----
2024-04-16 10:12 pm W 4.1 6.0----30.12- 55.4-----
2024-04-16 10:06 pmWNW 4.1 6.0----30.12- 61.2-----
2024-04-16 10:00 pm NW 5.1 6.0----30.12+0.06 61.2-----
2024-04-16 09:54 pmWNW 4.1 6.0----30.12- 61.0-----
2024-04-16 09:48 pm NW 5.1 6.0----30.12- 61.0-----
2024-04-16 09:42 pm NW 5.1 7.0----30.12- 61.2-----
2024-04-16 09:36 pm NW 4.1 6.0----30.12- 61.5-----
2024-04-16 09:30 pm NW 5.1 6.0----30.11- 61.9-----
2024-04-16 09:24 pmWNW 4.1 6.0----30.12- 62.1-----
2024-04-16 09:18 pm NW 5.1 8.0----30.12- 62.1-----
2024-04-16 09:12 pm NW 4.1 7.0----30.11- 62.1-----
2024-04-16 09:06 pm NW 5.1 6.0----30.11- 61.7-----
2024-04-16 09:00 pm NW 4.1 6.0----30.11+0.06 61.9-----
2024-04-16 08:54 pm NW 4.1 7.0----30.11- 62.2-----
2024-04-16 08:48 pm NW 5.1 7.0----30.11- 62.6-----
2024-04-16 08:42 pm NW 5.1 7.0----30.10- 63.0-----
2024-04-16 08:36 pm NW 5.1 6.0----30.10- 63.1-----
2024-04-16 08:30 pmWNW 4.1 7.0----30.10- 63.3-----
2024-04-16 08:24 pm NW 4.1 7.0----30.09- 63.5-----
2024-04-16 08:18 pm NW 4.1 5.1----30.09- 63.5-----
2024-04-16 08:12 pm NW 4.1 6.0----30.09- 63.7-----
2024-04-16 08:06 pm NW 2.9 5.1----30.09- 63.9-----
2024-04-16 08:00 pm NW 5.1 7.0----30.09+0.04 64.4-----
2024-04-16 07:54 pm NW 4.1 6.0----30.09- 64.2-----
2024-04-16 07:48 pmWNW 5.1 7.0----30.08- 64.8-----
2024-04-16 07:42 pm NW 4.1 8.9----30.08- 64.4-----
2024-04-16 07:36 pm NW 5.1 7.0----30.08- 64.8-----
2024-04-16 07:30 pm NW 6.0 8.9----30.08- 64.9-----
2024-04-16 07:24 pm NW 5.1 9.9----30.07- 65.3-----
2024-04-16 07:00 pm NW 5.1 8.0----30.06+0.01 65.8-----
2024-04-16 06:54 pm NW 8.0 11.1----30.06- 66.0-----
2024-04-16 06:48 pmNNW 8.9 12.0----30.06- 66.4-----
2024-04-16 06:42 pmNNW 8.9 14.0----30.06- 66.4-----
2024-04-16 06:36 pmWNW 8.9 15.9----30.06- 66.7-----
2024-04-16 06:30 pmWNW 9.9 17.1----30.06-------
2024-04-16 06:24 pmWNW 9.9 18.1----30.06-------
2024-04-16 06:18 pmWNW 8.0 11.1----30.05-------
2024-04-16 06:12 pmWNW 9.9 14.0----30.05-------
2024-04-16 06:06 pmWNW 11.1 15.9----30.05-------
2024-04-16 06:00 pmNNW 9.9 15.9----30.05-0.01 67.3-----
2024-04-16 05:54 pmWNW 8.9 14.0----30.05- 67.3-----
2024-04-16 05:48 pm NW 12.0 15.0----30.06- 66.9-----
2024-04-16 05:42 pmWNW 8.0 12.0----30.06- 67.6-----
2024-04-16 05:36 pmWNW 8.9 12.0----30.05- 67.3-----
2024-04-16 05:30 pmWNW 9.9 18.1----30.05- 67.5-----
2024-04-16 05:24 pmWNW 6.0 9.9----30.05- 67.5-----
2024-04-16 05:18 pmWNW 8.0 15.0----30.05- 67.3-----
2024-04-16 05:12 pmWNW 8.9 13.0----30.05- 67.3-----
2024-04-16 05:06 pm NW 4.1 7.0----30.05- 66.4-----
2024-04-16 05:00 pm- 0.0 1.0----30.05-0.01 64.6-----
2024-04-16 04:54 pm- 0.0 6.0----30.05- 63.0-----